,,,PA_Meas_PMT16A,,PR_Meas_QMR101_102,,RH_Meas_QMH101,,SR_Meas_QMS101,,TA_Meas_QMH101,,GenWind,,GenWind,
date,time,status,PA,status,PR,status,RH,status,SR,status,TA,status,DirAvg,status,SpdAvg,
2010-08-27, 00:00:04,VALID,1005.26,VALID,0,INVALID,119.209,VALID,0,VALID,23.5266,VALID,360,VALID,0.488672,
2010-08-27, 00:01:04,VALID,1005.25,VALID,0,INVALID,119.316,VALID,0,VALID,23.5071,VALID,360,VALID,0.542578,
2010-08-27, 00:02:04,VALID,1005.25,VALID,0,INVALID,119.316,VALID,0,VALID,23.4877,VALID,360,VALID,0.539844,
2010-08-27, 00:03:04,VALID,1005.24,VALID,0,INVALID,119.239,VALID,0,VALID,23.5071,VALID,360,VALID,0.418359,
2010-08-27, 00:04:04,VALID,1005.22,VALID,0,INVALID,119.262,VALID,0,VALID,23.5089,VALID,360,VALID,0.312891,
2010-08-27, 00:05:04,VALID,1005.21,VALID,0,INVALID,119.27,VALID,0,VALID,23.4877,VALID,360,VALID,0.482031,
2010-08-27, 00:06:04,VALID,1005.19,VALID,0,INVALID,119.247,VALID,0,VALID,23.5071,VALID,360,VALID,0.293359,
2010-08-27, 00:07:04,VALID,1005.18,VALID,0,INVALID,119.186,VALID,0,VALID,23.5071,VALID,360,VALID,0.501172,
2010-08-27, 00:08:04,VALID,1005.14,VALID,0,INVALID,119.11,VALID,0,VALID,23.5071,VALID,360,VALID,0.430859,
2010-08-27, 00:09:04,VALID,1005.13,VALID,0,INVALID,119.033,VALID,0,VALID,23.546,VALID,360,VALID,0.622656,
2010-08-27, 00:10:04,VALID,1005.08,VALID,0,INVALID,118.995,VALID,0,VALID,23.5655,VALID,360,VALID,0.4625,
2010-08-27, 00:11:04,VALID,1005.06,VALID,0,INVALID,119.102,VALID,0,VALID,23.5655,VALID,360,VALID,0.542969,
2010-08-27, 00:12:04,VALID,1005.06,VALID,0,INVALID,119.064,VALID,0,VALID,23.5443,VALID,360,VALID,0.620703,
2010-08-27, 00:13:04,VALID,1005.04,VALID,0,INVALID,119.056,VALID,0,VALID,23.6062,VALID,360,VALID,0.519141,
2010-08-27, 00:14:04,VALID,1005.03,VALID,0,INVALID,119.133,VALID,0,VALID,23.6044,VALID,360,VALID,0.419141,
2010-08-27, 00:15:04,VALID,1005.02,VALID,0,INVALID,119.094,VALID,0,VALID,23.6044,VALID,360,VALID,0.422266,
2010-08-27, 00:16:04,VALID,1005.01,VALID,0,INVALID,119.201,VALID,0,VALID,23.6044,VALID,360,VALID,0.446094,
2010-08-27, 00:17:04,VALID,1004.98,VALID,0,INVALID,119.285,VALID,0,VALID,23.5637,VALID,360,VALID,0.469531,
2010-08-27, 00:18:04,VALID,1005.02,VALID,0,INVALID,119.377,VALID,0,VALID,23.5655,VALID,360,VALID,0.425391,
2010-08-27, 00:19:04,VALID,1004.98,VALID,0,INVALID,119.384,VALID,0.100563,VALID,23.5248,VALID,360,VALID,0.35,
2010-08-27, 00:20:04,VALID,1004.94,VALID,0,INVALID,119.14,VALID,0,VALID,23.5443,VALID,360,VALID,0.611328,
2010-08-27, 00:21:04,VALID,1004.97,VALID,0,INVALID,119.033,VALID,0,VALID,23.585,VALID,360,VALID,0.512109,
2010-08-27, 00:22:04,VALID,1004.95,VALID,0,INVALID,119.041,VALID,0,VALID,23.6044,VALID,360,VALID,0.523828,
2010-08-27, 00:23:04,VALID,1004.92,VALID,0,INVALID,119.125,VALID,0,VALID,23.6239,VALID,360,VALID,0.532422,
2010-08-27, 00:24:04,VALID,1004.88,VALID,0,INVALID,119.102,VALID,0,VALID,23.6239,VALID,360,VALID,0.563281,
2010-08-27, 00:25:04,VALID,1004.9,VALID,0,INVALID,119.14,VALID,0,VALID,23.6026,VALID,360,VALID,0.542578,
2010-08-27, 00:26:04,VALID,1004.84,VALID,0,INVALID,119.178,VALID,0,VALID,23.6239,VALID,360,VALID,0.708594,
2010-08-27, 00:27:04,VALID,1004.82,VALID,0,INVALID,119.194,VALID,0,VALID,23.6044,VALID,358,VALID,0.707812,
2010-08-27, 00:28:04,VALID,1004.81,VALID,0,INVALID,119.11,VALID,0,VALID,23.6239,VALID,358,VALID,0.640234,
2010-08-27, 00:29:04,VALID,1004.78,VALID,0,INVALID,119.232,VALID,0,VALID,23.5832,VALID,359,VALID,0.811328,
2010-08-27, 00:30:04,VALID,1004.79,VALID,0,INVALID,118.98,VALID,0,VALID,23.6221,VALID,360,VALID,0.617578,
2010-08-27, 00:31:04,VALID,1004.77,VALID,0,INVALID,119.033,VALID,0,VALID,23.6221,VALID,360,VALID,0.541016,
2010-08-27, 00:32:04,VALID,1004.79,VALID,0,INVALID,119.026,VALID,0,VALID,23.6628,VALID,4,VALID,0.605469,
2010-08-27, 00:33:04,VALID,1004.79,VALID,0,INVALID,118.957,VALID,0,VALID,23.7017,VALID,6,VALID,0.353516,
2010-08-27, 00:34:04,VALID,1004.75,VALID,0,INVALID,118.835,VALID,0,VALID,23.7619,VALID,2,VALID,0.633984,
2010-08-27, 00:35:04,VALID,1004.72,VALID,0,INVALID,118.927,VALID,0,VALID,23.7796,VALID,353,VALID,0.870703,
2010-08-27, 00:36:04,VALID,1004.68,VALID,0,INVALID,119.041,VALID,0,VALID,23.7991,VALID,348,VALID,0.530078,
2010-08-27, 00:37:04,VALID,1004.67,VALID,0,INVALID,119.262,VALID,0,VALID,23.7991,VALID,349,VALID,0.567969,
2010-08-27, 00:38:04,VALID,1004.67,VALID,0,INVALID,119.4,VALID,0,VALID,23.838,VALID,355,VALID,0.596094,
2010-08-27, 00:39:04,VALID,1004.63,VALID,0,INVALID,119.415,VALID,0,VALID,23.8769,VALID,16,VALID,0.789844,
2010-08-27, 00:40:04,VALID,1004.61,VALID,0,INVALID,119.59,VALID,0,VALID,23.9353,VALID,12,VALID,0.724609,
2010-08-27, 00:41:04,VALID,1004.64,VALID,0,INVALID,119.682,VALID,0,VALID,24.0132,VALID,16,VALID,0.344531,
2010-08-27, 00:42:04,VALID,1004.64,VALID,0,INVALID,119.918,VALID,0,VALID,24.0521,VALID,16,VALID,0.546094,
2010-08-27, 00:43:04,VALID,1004.63,VALID,0,INVALID,120.086,VALID,0,VALID,24.091,VALID,16,VALID,0,
2010-08-27, 00:44:04,VALID,1004.66,VALID,0,INVALID,120.155,VALID,0,VALID,24.1105,VALID,3,VALID,0.852734,
2010-08-27, 00:45:04,VALID,1004.64,VALID,0,INVALID,120.269,VALID,0,VALID,24.1902,VALID,358,VALID,0.450781,
2010-08-27, 00:46:04,VALID,1004.6,VALID,0,INVALID,120.353,VALID,0,VALID,24.2486,VALID,358,VALID,0.405859,
2010-08-27, 00:47:04,VALID,1004.58,VALID,0,INVALID,120.391,VALID,0,VALID,24.2857,VALID,358,VALID,0.459375,
2010-08-27, 00:48:04,VALID,1004.57,VALID,0,INVALID,120.33,VALID,0,VALID,24.3246,VALID,5,VALID,0.453906,
2010-08-27, 00:49:04,VALID,1004.55,VALID,0,INVALID,120.231,VALID,0,VALID,24.3441,VALID,5,VALID,0.373828,
2010-08-27, 00:50:04,VALID,1004.52,VALID,0,INVALID,120.17,VALID,0,VALID,24.3617,VALID,34,VALID,0.23125,
2010-08-27, 00:51:04,VALID,1004.51,VALID,0,INVALID,120.056,VALID,0,VALID,24.4025,VALID,34,VALID,0.961328,
2010-08-27, 00:52:04,VALID,1004.53,VALID,0,INVALID,120.002,VALID,0,VALID,24.4822,VALID,19,VALID,0.317969,
2010-08-27, 00:53:04,VALID,1004.51,VALID,0,INVALID,119.812,VALID,0,VALID,24.4609,VALID,14,VALID,0.686719,
2010-08-27, 00:54:04,VALID,1004.53,VALID,0,INVALID,119.667,VALID,0,VALID,24.4998,VALID,14,VALID,0.844141,
2010-08-27, 00:55:04,VALID,1004.54,VALID,0,INVALID,119.522,VALID,0,VALID,24.5193,VALID,1,VALID,0.450781,
2010-08-27, 00:56:04,VALID,1004.53,VALID,0,INVALID,119.339,VALID,0,VALID,24.5212,VALID,1,VALID,0.502344,
2010-08-27, 00:57:04,VALID,1004.52,VALID,0,INVALID,119.224,VALID,0,VALID,24.5193,VALID,15,VALID,0.648828,
2010-08-27, 00:58:04,VALID,1004.52,VALID,0,INVALID,119.27,VALID,0,VALID,24.5582,VALID,27,VALID,0.872266,
2010-08-27, 00:59:04,VALID,1004.51,VALID,0,INVALID,119.041,VALID,0,VALID,24.6166,VALID,2,VALID,1.30469,
2010-08-27, 01:00:04,VALID,1004.5,VALID,0,INVALID,116.989,VALID,0,VALID,24.675,VALID,15,VALID,0.773438,
2010-08-27, 01:01:04,VALID,1004.53,VALID,0,INVALID,113.304,VALID,0,VALID,24.7335,VALID,22,VALID,1.25508,
2010-08-27, 01:02:04,VALID,1004.53,VALID,0,VALID,104,VALID,0,VALID,24.7529,VALID,346,VALID,0.699219,
2010-08-27, 01:03:04,VALID,1004.53,VALID,0,VALID,100.327,VALID,0,VALID,24.7724,VALID,356,VALID,1.15742,
2010-08-27, 01:04:04,VALID,1004.55,VALID,0,VALID,98.6414,VALID,0,VALID,24.7919,VALID,18,VALID,0.591797,
2010-08-27, 01:05:04,VALID,1004.52,VALID,0,VALID,97.4208,VALID,0,VALID,24.7919,VALID,39,VALID,0.346484,
2010-08-27, 01:06:04,VALID,1004.51,VALID,0,VALID,96.2536,VALID,0,VALID,24.7919,VALID,39,VALID,0,
2010-08-27, 01:07:04,VALID,1004.45,VALID,0,VALID,95.9255,VALID,0,VALID,24.7724,VALID,37,VALID,0.349219,
2010-08-27, 01:08:04,VALID,1004.48,VALID,0,VALID,96.9478,VALID,0,VALID,24.751,VALID,356,VALID,0.316797,
2010-08-27, 01:09:04,VALID,1004.45,VALID,0,VALID,97.5352,VALID,0,VALID,24.7529,VALID,4,VALID,0.4625,
2010-08-27, 01:10:04,VALID,1004.45,VALID,0,VALID,96.8486,VALID,0,VALID,24.7724,VALID,3,VALID,0.574219,
2010-08-27, 01:11:04,VALID,1004.45,VALID,0,VALID,96.3222,VALID,0,VALID,24.7724,VALID,6,VALID,0.601172,
2010-08-27, 01:12:04,VALID,1004.45,VALID,0,VALID,96.3299,VALID,0,VALID,24.714,VALID,360,VALID,0.46875,
2010-08-27, 01:13:04,VALID,1004.45,VALID,0,VALID,97.2911,VALID,0,VALID,24.714,VALID,30,VALID,0.387891,
2010-08-27, 01:14:04,VALID,1004.44,VALID,0,VALID,98.0311,VALID,0,VALID,24.6945,VALID,337,VALID,0.841797,
2010-08-27, 01:15:04,VALID,1004.42,VALID,0,VALID,98.4354,VALID,0,VALID,24.675,VALID,10,VALID,0.595703,
2010-08-27, 01:16:04,VALID,1004.4,VALID,0,VALID,101.846,VALID,0,VALID,24.6945,VALID,356,VALID,0.494922,
2010-08-27, 01:17:04,VALID,1004.4,VALID,0,VALID,99.0458,VALID,0,VALID,24.7159,VALID,356,VALID,0.375781,
2010-08-27, 01:18:04,VALID,1004.41,VALID,0,VALID,98.4965,VALID,0,VALID,24.675,VALID,353,VALID,0.294531,
2010-08-27, 01:19:04,VALID,1004.41,VALID,0,VALID,99.7629,VALID,0,VALID,24.675,VALID,353,VALID,0.561719,
2010-08-27, 01:20:04,VALID,1004.4,VALID,0,VALID,100.16,VALID,0,VALID,24.675,VALID,353,VALID,0.106641,
2010-08-27, 01:21:04,VALID,1004.4,VALID,0,VALID,100.976,VALID,0,VALID,24.6361,VALID,353,VALID,0.175781,
2010-08-27, 01:22:04,VALID,1004.41,VALID,0,VALID,103.57,VALID,0,VALID,24.6361,VALID,353,VALID,0.202734,
2010-08-27, 01:23:04,VALID,1004.38,VALID,0,VALID,104,VALID,0,VALID,24.6166,VALID,353,VALID,0.385156,
2010-08-27, 01:24:04,VALID,1004.4,VALID,0,VALID,104,VALID,0,VALID,24.5777,VALID,353,VALID,0.464844,
2010-08-27, 01:25:04,VALID,1004.42,VALID,0,INVALID,112.312,VALID,0,VALID,24.5388,VALID,353,VALID,0.23125,
2010-08-27, 01:26:04,VALID,1004.46,VALID,0,INVALID,113.731,VALID,0,VALID,24.5193,VALID,353,VALID,0.391406,
2010-08-27, 01:27:04,VALID,1004.44,VALID,0,INVALID,115.402,VALID,0,VALID,24.4804,VALID,353,VALID,0.338672,
2010-08-27, 01:28:04,VALID,1004.46,VALID,0,INVALID,115.982,VALID,0,VALID,24.4609,VALID,353,VALID,0.494141,
2010-08-27, 01:29:04,VALID,1004.49,VALID,0,INVALID,115.806,VALID,0,VALID,24.4025,VALID,353,VALID,0.5625,
2010-08-27, 01:30:04,VALID,1004.48,VALID,0,INVALID,116.752,VALID,0,VALID,24.3636,VALID,353,VALID,0.61875,
2010-08-27, 01:31:04,VALID,1004.46,VALID,0,INVALID,118.263,VALID,0,VALID,24.3265,VALID,353,VALID,0.485156,
2010-08-27, 01:32:04,VALID,1004.46,VALID,0,INVALID,119.072,VALID,0,VALID,24.3052,VALID,12,VALID,0.653906,
2010-08-27, 01:33:04,VALID,1004.44,VALID,0,INVALID,119.27,VALID,0,VALID,24.2875,VALID,11,VALID,0.558984,
2010-08-27, 01:34:04,VALID,1004.41,VALID,0,INVALID,119.514,VALID,0,VALID,24.2857,VALID,32,VALID,0.54375,
2010-08-27, 01:35:04,VALID,1004.38,VALID,0,INVALID,119.529,VALID,0,VALID,24.2255,VALID,30,VALID,0.445313,
2010-08-27, 01:36:04,VALID,1004.36,VALID,0,INVALID,119.613,VALID,0,VALID,24.2078,VALID,28,VALID,0.476172,
2010-08-27, 01:37:04,VALID,1004.35,VALID,0,INVALID,119.628,VALID,0,VALID,24.1884,VALID,30,VALID,0.342578,
2010-08-27, 01:38:04,VALID,1004.32,VALID,0,INVALID,119.728,VALID,0,VALID,24.1689,VALID,24,VALID,0.533984,
2010-08-27, 01:39:04,VALID,1004.31,VALID,0,INVALID,119.873,VALID,0.100563,VALID,24.1884,VALID,16,VALID,0.574219,
2010-08-27, 01:40:04,VALID,1004.32,VALID,0,INVALID,119.934,VALID,0,VALID,24.1902,VALID,8,VALID,0.558984,
2010-08-27, 01:41:04,VALID,1004.35,VALID,0,INVALID,119.964,VALID,0,VALID,24.1689,VALID,4,VALID,0.229297,
2010-08-27, 01:42:04,VALID,1004.34,VALID,0,INVALID,119.972,VALID,0,VALID,24.13,VALID,4,VALID,0.282813,
2010-08-27, 01:43:04,VALID,1004.37,VALID,0,INVALID,120.002,VALID,0,VALID,24.1494,VALID,4,VALID,0.430078,
2010-08-27, 01:44:04,VALID,1004.35,VALID,0,INVALID,120.01,VALID,0,VALID,24.1513,VALID,4,VALID,0.329297,
2010-08-27, 01:45:04,VALID,1004.32,VALID,0,INVALID,120.079,VALID,0,VALID,24.1494,VALID,4,VALID,0.295312,
2010-08-27, 01:46:04,VALID,1004.31,VALID,0,INVALID,120.101,VALID,0.100563,VALID,24.13,VALID,2,VALID,0.653906,
2010-08-27, 01:47:04,VALID,1004.3,VALID,0,INVALID,120.109,VALID,0.100563,VALID,24.13,VALID,360,VALID,0.546094,
2010-08-27, 01:48:04,VALID,1004.26,VALID,0,INVALID,120.117,VALID,0,VALID,24.1884,VALID,358,VALID,0.873828,
2010-08-27, 01:49:04,VALID,1004.26,VALID,0,INVALID,120.216,VALID,0,VALID,24.1884,VALID,357,VALID,0.645703,
2010-08-27, 01:50:04,VALID,1004.26,VALID,0,INVALID,120.185,VALID,0,VALID,24.1884,VALID,356,VALID,0.392578,
2010-08-27, 01:51:04,VALID,1004.27,VALID,0,INVALID,120.109,VALID,0,VALID,24.1689,VALID,356,VALID,0.548047,
2010-08-27, 01:52:04,VALID,1004.26,VALID,0,INVALID,120.094,VALID,0,VALID,24.1902,VALID,356,VALID,0.604297,
2010-08-27, 01:53:04,VALID,1004.29,VALID,0,INVALID,120.079,VALID,0,VALID,24.1707,VALID,355,VALID,0.635547,
2010-08-27, 01:54:04,VALID,1004.29,VALID,0,INVALID,120.079,VALID,0,VALID,24.1494,VALID,355,VALID,0.469141,
2010-08-27, 01:55:04,VALID,1004.31,VALID,0,INVALID,120.101,VALID,0,VALID,24.1707,VALID,355,VALID,0.346875,
2010-08-27, 01:56:04,VALID,1004.34,VALID,0,INVALID,120.079,VALID,0,VALID,24.1105,VALID,339,VALID,0.433984,
2010-08-27, 01:57:04,VALID,1004.37,VALID,0,INVALID,120.101,VALID,0,VALID,24.1318,VALID,348,VALID,0.565234,
2010-08-27, 01:58:04,VALID,1004.4,VALID,0,INVALID,120.109,VALID,0,VALID,24.0697,VALID,343,VALID,0.513281,
2010-08-27, 01:59:04,VALID,1004.43,VALID,0,INVALID,120.14,VALID,0,VALID,24.091,VALID,345,VALID,0.337109,
2010-08-27, 02:00:04,VALID,1004.47,VALID,0,INVALID,120.155,VALID,0,VALID,24.091,VALID,345,VALID,0.145703,
2010-08-27, 02:01:04,VALID,1004.47,VALID,0,INVALID,120.17,VALID,0,VALID,24.091,VALID,345,VALID,0.500781,
2010-08-27, 02:02:04,VALID,1004.5,VALID,0,INVALID,120.17,VALID,0,VALID,24.1105,VALID,358,VALID,0.414063,
2010-08-27, 02:03:04,VALID,1004.47,VALID,0,INVALID,120.185,VALID,0,VALID,24.091,VALID,358,VALID,0.561328,
2010-08-27, 02:04:04,VALID,1004.48,VALID,0,INVALID,120.147,VALID,0,VALID,24.0716,VALID,357,VALID,0.657422,
2010-08-27, 02:05:04,VALID,1004.44,VALID,0,INVALID,120.147,VALID,0,VALID,24.0326,VALID,357,VALID,0.498047,
2010-08-27, 02:06:04,VALID,1004.47,VALID,0,INVALID,120.132,VALID,0,VALID,23.9937,VALID,357,VALID,0.574609,
2010-08-27, 02:07:04,VALID,1004.44,VALID,0,INVALID,120.117,VALID,0,VALID,23.9335,VALID,357,VALID,0.724219,
2010-08-27, 02:08:04,VALID,1004.42,VALID,0,INVALID,120.132,VALID,0,VALID,23.9159,VALID,357,VALID,0.755078,
2010-08-27, 02:09:04,VALID,1004.44,VALID,0,INVALID,120.124,VALID,0,VALID,23.8575,VALID,356,VALID,0.813281,
2010-08-27, 02:10:04,VALID,1004.43,VALID,0,INVALID,120.147,VALID,0,VALID,23.8185,VALID,1,VALID,0.960547,
2010-08-27, 02:11:04,VALID,1004.44,VALID,0,INVALID,120.185,VALID,0.100563,VALID,23.7583,VALID,360,VALID,0.690234,
2010-08-27, 02:12:04,VALID,1004.46,VALID,0,INVALID,120.201,VALID,0,VALID,23.7601,VALID,360,VALID,0.581641,
2010-08-27, 02:13:04,VALID,1004.49,VALID,0,INVALID,120.224,VALID,0,VALID,23.7407,VALID,359,VALID,0.66875,
2010-08-27, 02:14:04,VALID,1004.48,VALID,0,INVALID,120.224,VALID,0,VALID,23.7212,VALID,359,VALID,0.698438,
2010-08-27, 02:15:04,VALID,1004.48,VALID,0,INVALID,120.216,VALID,0,VALID,23.6805,VALID,356,VALID,0.682813,
2010-08-27, 02:16:04,VALID,1004.5,VALID,0,INVALID,120.208,VALID,0,VALID,23.661,VALID,356,VALID,0.578906,
2010-08-27, 02:17:04,VALID,1004.5,VALID,0,INVALID,120.162,VALID,0.100563,VALID,23.6823,VALID,1,VALID,0.957812,
2010-08-27, 02:18:04,VALID,1004.47,VALID,0,INVALID,120.14,VALID,0,VALID,23.6823,VALID,5,VALID,0.655469,
2010-08-27, 02:19:04,VALID,1004.47,VALID,0,INVALID,120.117,VALID,0,VALID,23.7017,VALID,5,VALID,0.745703,
2010-08-27, 02:20:04,VALID,1004.46,VALID,0,INVALID,120.086,VALID,0,VALID,23.7017,VALID,4,VALID,0.595312,
2010-08-27, 02:21:04,VALID,1004.47,VALID,0,INVALID,120.079,VALID,0,VALID,23.723,VALID,4,VALID,0.408984,
2010-08-27, 02:22:04,VALID,1004.47,VALID,0,INVALID,120.086,VALID,0,VALID,23.6823,VALID,358,VALID,0.673047,
2010-08-27, 02:23:04,VALID,1004.49,VALID,0,INVALID,120.14,VALID,0,VALID,23.6628,VALID,358,VALID,0.510156,
2010-08-27, 02:24:04,VALID,1004.47,VALID,0,INVALID,120.018,VALID,0,VALID,23.6823,VALID,358,VALID,0.371094,
2010-08-27, 02:25:04,VALID,1004.48,VALID,0,INVALID,119.979,VALID,0,VALID,23.661,VALID,342,VALID,0.275,
2010-08-27, 02:26:04,VALID,1004.51,VALID,0,INVALID,120.04,VALID,0,VALID,23.6823,VALID,342,VALID,0.274609,
2010-08-27, 02:27:04,VALID,1004.5,VALID,0,INVALID,120.132,VALID,0,VALID,23.6239,VALID,342,VALID,0.430078,
2010-08-27, 02:28:04,VALID,1004.49,VALID,0,INVALID,120.109,VALID,0,VALID,23.6239,VALID,342,VALID,0.461328,
2010-08-27, 02:29:04,VALID,1004.51,VALID,0,INVALID,120.048,VALID,0,VALID,23.6044,VALID,342,VALID,0.482812,
2010-08-27, 02:30:04,VALID,1004.48,VALID,0,INVALID,119.964,VALID,0,VALID,23.585,VALID,342,VALID,0.377344,
2010-08-27, 02:31:04,VALID,1004.48,VALID,0,INVALID,119.972,VALID,0,VALID,23.5655,VALID,342,VALID,0.421484,
2010-08-27, 02:32:04,VALID,1004.5,VALID,0,INVALID,119.941,VALID,0,VALID,23.546,VALID,342,VALID,0.393359,
2010-08-27, 02:33:04,VALID,1004.47,VALID,0,INVALID,119.819,VALID,0,VALID,23.5266,VALID,342,VALID,0.246094,
2010-08-27, 02:34:04,VALID,1004.45,VALID,0,INVALID,119.674,VALID,0,VALID,23.585,VALID,342,VALID,0.455469,
2010-08-27, 02:35:04,VALID,1004.45,VALID,0,INVALID,119.72,VALID,0,VALID,23.546,VALID,342,VALID,0.493359,
2010-08-27, 02:36:04,VALID,1004.43,VALID,0,INVALID,119.636,VALID,0,VALID,23.5443,VALID,342,VALID,0.623047,
2010-08-27, 02:37:04,VALID,1004.42,VALID,0,INVALID,119.468,VALID,0,VALID,23.5443,VALID,342,VALID,0.509766,
2010-08-27, 02:38:04,VALID,1004.39,VALID,0,INVALID,119.407,VALID,0,VALID,23.585,VALID,342,VALID,0.511719,
2010-08-27, 02:39:04,VALID,1004.42,VALID,0,INVALID,119.163,VALID,0,VALID,23.6044,VALID,342,VALID,0.650391,
2010-08-27, 02:40:04,VALID,1004.4,VALID,0,INVALID,119.43,VALID,0,VALID,23.585,VALID,342,VALID,0.635547,
2010-08-27, 02:41:04,VALID,1004.39,VALID,0,INVALID,119.484,VALID,0,VALID,23.5248,VALID,342,VALID,0.596484,
2010-08-27, 02:42:04,VALID,1004.37,VALID,0,INVALID,119.331,VALID,0,VALID,23.546,VALID,342,VALID,0.553125,
2010-08-27, 02:43:04,VALID,1004.37,VALID,0,INVALID,119.316,VALID,0,VALID,23.5266,VALID,342,VALID,0.642969,
2010-08-27, 02:44:04,VALID,1004.34,VALID,0,INVALID,119.4,VALID,0,VALID,23.5071,VALID,342,VALID,0.620313,
2010-08-27, 02:45:04,VALID,1004.34,VALID,0,INVALID,119.392,VALID,0,VALID,23.4682,VALID,342,VALID,0.523047,
2010-08-27, 02:46:04,VALID,1004.32,VALID,0,INVALID,119.415,VALID,0,VALID,23.4487,VALID,342,VALID,0.484375,
2010-08-27, 02:47:04,VALID,1004.29,VALID,0,INVALID,119.361,VALID,0,VALID,23.4293,VALID,342,VALID,0.377734,
2010-08-27, 02:48:04,VALID,1004.29,VALID,0,INVALID,119.3,VALID,0,VALID,23.4098,VALID,342,VALID,0.473437,
2010-08-27, 02:49:04,VALID,1004.28,VALID,0,INVALID,119.064,VALID,0,VALID,23.3886,VALID,342,VALID,0.344922,
2010-08-27, 02:50:04,VALID,1004.27,VALID,0,INVALID,119.133,VALID,0,VALID,23.3904,VALID,342,VALID,0.346094,
2010-08-27, 02:51:04,VALID,1004.29,VALID,0,INVALID,119.178,VALID,0,VALID,23.3709,VALID,342,VALID,0.448438,
2010-08-27, 02:52:04,VALID,1004.26,VALID,0,INVALID,119.11,VALID,0,VALID,23.3709,VALID,342,VALID,0.514453,
2010-08-27, 02:53:04,VALID,1004.29,VALID,0,INVALID,119.041,VALID,0,VALID,23.332,VALID,342,VALID,0.596094,
2010-08-27, 02:54:04,VALID,1004.3,VALID,0,INVALID,118.942,VALID,0,VALID,23.3514,VALID,342,VALID,0.589453,
2010-08-27, 02:55:04,VALID,1004.28,VALID,0,INVALID,118.888,VALID,0,VALID,23.3107,VALID,342,VALID,0.493359,
2010-08-27, 02:56:04,VALID,1004.25,VALID,0,INVALID,118.85,VALID,0,VALID,23.2913,VALID,342,VALID,0.448828,
2010-08-27, 02:57:04,VALID,1004.28,VALID,0,INVALID,118.797,VALID,0,VALID,23.2931,VALID,342,VALID,0.592578,
2010-08-27, 02:58:04,VALID,1004.24,VALID,0,INVALID,118.644,VALID,0,VALID,23.2931,VALID,342,VALID,0.726172,
2010-08-27, 02:59:04,VALID,1004.2,VALID,0,INVALID,118.606,VALID,0,VALID,23.2931,VALID,346,VALID,0.503906,
2010-08-27, 03:00:04,VALID,1004.17,VALID,0,INVALID,118.454,VALID,0,VALID,23.2931,VALID,353,VALID,0.705078,
2010-08-27, 03:01:04,VALID,1004.15,VALID,0,INVALID,118.324,VALID,0,VALID,23.3125,VALID,353,VALID,0.553516,
2010-08-27, 03:02:04,VALID,1004.12,VALID,0,INVALID,118.293,VALID,0,VALID,23.2931,VALID,353,VALID,0.543359,
2010-08-27, 03:03:04,VALID,1004.12,VALID,0,INVALID,118.316,VALID,0,VALID,23.2736,VALID,353,VALID,0.427344,
2010-08-27, 03:04:04,VALID,1004.1,VALID,0,INVALID,118.156,VALID,0.100563,VALID,23.2931,VALID,353,VALID,0.562891,
2010-08-27, 03:05:04,VALID,1004.03,VALID,0,INVALID,118.011,VALID,0,VALID,23.2718,VALID,353,VALID,0.461328,
2010-08-27, 03:06:04,VALID,1004.02,VALID,0,INVALID,117.744,VALID,0,VALID,23.3302,VALID,353,VALID,0.794531,
2010-08-27, 03:07:04,VALID,1004,VALID,0,INVALID,117.706,VALID,0,VALID,23.3514,VALID,353,VALID,0.591797,
2010-08-27, 03:08:04,VALID,1003.97,VALID,0,INVALID,117.576,VALID,0,VALID,23.3709,VALID,353,VALID,0.593359,
2010-08-27, 03:09:04,VALID,1003.92,VALID,0,INVALID,117.63,VALID,0,VALID,23.3514,VALID,353,VALID,0.576953,
2010-08-27, 03:10:04,VALID,1003.91,VALID,0,INVALID,117.714,VALID,0.100563,VALID,23.3107,VALID,353,VALID,0.590234,
2010-08-27, 03:11:04,VALID,1003.89,VALID,0,INVALID,117.645,VALID,0.100563,VALID,23.332,VALID,353,VALID,0.638281,
2010-08-27, 03:12:04,VALID,1003.86,VALID,0,INVALID,117.66,VALID,0,VALID,23.3125,VALID,353,VALID,0.361719,
2010-08-27, 03:13:04,VALID,1003.85,VALID,0,INVALID,117.531,VALID,0,VALID,23.3125,VALID,353,VALID,0.305469,
2010-08-27, 03:14:04,VALID,1003.85,VALID,0,INVALID,117.431,VALID,0.100563,VALID,23.3514,VALID,353,VALID,0.554688,
2010-08-27, 03:15:04,VALID,1003.82,VALID,0,INVALID,117.256,VALID,0,VALID,23.3727,VALID,6,VALID,0.310937,
2010-08-27, 03:16:04,VALID,1003.79,VALID,0,INVALID,116.974,VALID,0,VALID,23.4098,VALID,359,VALID,0.641797,
2010-08-27, 03:17:04,VALID,1003.79,VALID,0,INVALID,116.684,VALID,0.100563,VALID,23.4682,VALID,7,VALID,0.468359,
2010-08-27, 03:18:04,VALID,1003.78,VALID,0,INVALID,116.775,VALID,0,VALID,23.4877,VALID,7,VALID,0.389062,
2010-08-27, 03:19:04,VALID,1003.74,VALID,0,INVALID,116.829,VALID,0,VALID,23.5071,VALID,7,VALID,0.45625,
2010-08-27, 03:20:04,VALID,1003.75,VALID,0,INVALID,117.012,VALID,0.100563,VALID,23.5071,VALID,7,VALID,0.366406,
2010-08-27, 03:21:04,VALID,1003.72,VALID,0,INVALID,116.966,VALID,0,VALID,23.5478,VALID,357,VALID,0,
2010-08-27, 03:22:04,VALID,1003.7,VALID,0,INVALID,117.058,VALID,0,VALID,23.5266,VALID,353,VALID,0,
2010-08-27, 03:23:04,VALID,1003.65,VALID,0,INVALID,117.088,VALID,0,VALID,23.5868,VALID,351,VALID,0.58125,
2010-08-27, 03:24:04,VALID,1003.66,VALID,0,INVALID,117.37,VALID,0,VALID,23.546,VALID,352,VALID,0.561328,
2010-08-27, 03:25:04,VALID,1003.61,VALID,0,INVALID,117.363,VALID,0,VALID,23.5637,VALID,351,VALID,0.892187,
2010-08-27, 03:26:04,VALID,1003.58,VALID,0,INVALID,117.363,VALID,0,VALID,23.6646,VALID,352,VALID,0.699609,
2010-08-27, 03:27:04,VALID,1003.52,VALID,0,INVALID,117.607,VALID,0,VALID,23.7035,VALID,347,VALID,0.748828,
2010-08-27, 03:28:04,VALID,1003.52,VALID,0,INVALID,117.958,VALID,0,VALID,23.6823,VALID,1,VALID,0.565625,
2010-08-27, 03:29:04,VALID,1003.47,VALID,0,INVALID,117.912,VALID,0,VALID,23.7407,VALID,360,VALID,0.630859,
2010-08-27, 03:30:04,VALID,1003.45,VALID,0,INVALID,118.049,VALID,0,VALID,23.8185,VALID,10,VALID,0.954297,
2010-08-27, 03:31:04,VALID,1003.39,VALID,0,INVALID,118.24,VALID,0,VALID,23.9159,VALID,11,VALID,1.26992,
2010-08-27, 03:32:04,VALID,1003.36,VALID,0,INVALID,118.583,VALID,0,VALID,24.0521,VALID,10,VALID,1.10898,
2010-08-27, 03:33:04,VALID,1003.34,VALID,0,INVALID,119.308,VALID,0,VALID,24.1281,VALID,11,VALID,0.697656,
2010-08-27, 03:34:04,VALID,1003.32,VALID,0,INVALID,119.857,VALID,0,VALID,24.2078,VALID,12,VALID,0.729688,
2010-08-27, 03:35:04,VALID,1003.34,VALID,0,INVALID,120.239,VALID,0,VALID,24.2255,VALID,23,VALID,0.687891,
2010-08-27, 03:36:04,VALID,1003.34,VALID,0,INVALID,120.414,VALID,0,VALID,24.3673,VALID,11,VALID,0.473437,
2010-08-27, 03:37:04,VALID,1003.38,VALID,0,INVALID,120.536,VALID,0,VALID,24.4025,VALID,4,VALID,0.531641,
2010-08-27, 03:38:04,VALID,1003.41,VALID,0,INVALID,120.559,VALID,0,VALID,24.4804,VALID,30,VALID,0.625,
2010-08-27, 03:39:04,VALID,1003.4,VALID,0,INVALID,120.536,VALID,0,VALID,24.6166,VALID,5,VALID,0.397266,
2010-08-27, 03:40:04,VALID,1003.39,VALID,0,INVALID,120.414,VALID,0,VALID,24.6769,VALID,29,VALID,0.688672,
2010-08-27, 03:41:04,VALID,1003.45,VALID,0,INVALID,120.231,VALID,0,VALID,24.6732,VALID,11,VALID,0.469922,